User: anonymous   Login
Location: Albany
(35.0000°S, 118.0000°E)
Time: 04:44:18
(UTC-04:00)
Language:

Radarsat Rocket - Orbit

View from above orbital plane
View from above orbital plane
View from above satellite
View from above satellite

Ground track
Ground track

The orbit data is extracted from the following two-line orbital elements,

1 23711U 95059B   14296.82533124 -.00000153  00000-0 -21267-3 0  7925
2 23711 100.4631 280.1418 0368023 349.3616 068.3371 13.12654179908878
Epoch (UTC): 23 October 2014 19:48:28
Eccentricity: 0.0368023
inclination: 100.4631°
perigee height: 933 km
apogee height: 1492 km
right ascension of ascending node: 280.1418°
argument of perigee: 349.3616°
revolutions per day: 13.12654179
mean anomaly at epoch: 68.3371°
orbit number at epoch: 90887

The dashed part of the orbit path shows where the satellite is in the earth's shadow,  

DLR